Temp
12 12 12 12 15 16 17 18 18 18 18 18 18 18 18 18 18 18 17 19 19 19 19 19 19 19 19 17 17 15 16 16 20 18 21 19 20 18 15 14 14 13 13 13 12
16 16 17 16 15 16 17 17 17 16 17 17 17 18 17 17 17 17 19 19 19 19 19 19 18 18 17 18 16 15 15 17 18 19 19 19 20 17 18 16 15 13 10 10 10
15 17 17 17 17 17 17 17 17 17 17 17 17 17 17 18 18 19 19 19 19 19 19 19 19 19 19 18 18 16 17 18 19 18 18 19 19 18 17 17 16 14 9 10 10
16 16 17 17 17 17 17 17 18 17 17 17 17 16 17 17 20 19 19 19 19 19 19 19 18 19 18 19 18 19 18 18 18 18 18 19 18 18 16 18 15 14 10 10 10
15 15 16 17 17 17 17 17 17 16 16 17 18 17 17 17 17 19 19 19 19 19 19 18 19 18 19 18 18 19 19 18 17 17 17 17 18 17 16 15 11 10 10 10 10
15 15 15 17 17 17 17 17 16 16 16 17 16 16 16 18 18 18 19 18 18 18 18 18 18 18 18 19 19 18 18 17 16 17 17 17 17 17 16 11 10 10 9 9 9
14 15 15 16 17 17 17 17 17 17 16 16 16 16 16 18 18 18 18 18 18 19 18 19 19 19 18 18 17 17 19 17 16 17 17 16 17 15 14 11 10 10 9 8 8
15 15 14 15 16 16 16 17 17 17 16 16 15 16 16 18 18 18 18 18 18 18 19 18 19 18 18 16 15 17 16 17 17 16 16 16 18 17 11 11 10 9 9 9 8
15 15 14 14 15 16 16 16 16 16 16 16 15 16 17 17 17 17 18 18 18 18 18 18 18 16 17 15 15 14 16 16 18 15 16 16 18 16 11 11 11 9 8 9 8
14 15 14 14 15 16 16 15 15 15 15 15 15 16 16 17 17 17 17 18 17 17 17 17 13 14 13 14 15 16 16 16 17 16 15 15 14 14 13 11 11 9 8 8 8
15 15 14 14 14 15 15 15 13 14 15 16 17 17 16 16 16 16 17 17 17 17 16 15 15 15 15 15 17 15 17 18 17 15 16 14 12 13 13 11 10 8 8 8 8
14 15 14 14 14 15 15 13 16 16 17 14 16 16 16 16 16 16 17 17 17 16 15 15 14 15 16 14 16 16 17 16 16 14 15 13 13 13 13 13 11 10 8 8 8
14 14 14 14 14 14 14 15 15 15 16 16 15 16 16 16 16 15 15 15 16 15 14 14 16 15 16 15 15 16 15 15 16 14 12 12 13 16 13 12 9 7 8 9 8
14 14 14 14 13 14 14 15 15 15 14 16 15 16 15 15 16 15 15 16 16 15 13 15 15 16 16 16 14 16 14 15 14 11 11 10 12 15 12 13 8 6 5 7 8
14 14 13 13 13 13 14 14 14 15 13 16 15 15 15 15 14 15 15 16 15 14 14 14 14 15 15 15 14 14 11 11 11 8 9 12 7 13 12 14 9 7 5 5 8
14 14 13 13 13 14 14 14 14 14 13 15 14 14 15 15 15 14 15 14 14 14 12 12 11 12 12 10 12 9 11 9 7 7 6 6 9 12 13 10 8 7 5 5 6
14 13 12 12 13 13 13 12 14 13 17 15 14 14 15 14 14 15 14 13 12 14 13 12 12 11 11 11 12 11 11 8 9 6 10 8 7 11 9 7 7 7 5 5 5
13 12 12 13 13 13 13 14 15 16 15 15 14 14 14 14 14 14 12 12 11 12 9 12 13 11 9 11 10 11 10 9 11 10 12 8 9 10 8 6 6 6 6 5 5
11 11 11 12 13 12 11 12 14 15 15 14 15 15 14 14 13 14 12 10 10 10 13 11 13 9 8 9 9 10 10 9 4 4 5 10 10 8 7 7 6 6 5 4 4
10 11 11 12 12 12 12 13 14 13 13 14 15 14 13 13 13 12 11 11 10 10 9 11 11 9 8 9 8 9 8 9 5 8 9 10 10 10 7 7 7 5 4 3 3
9 12 11 11 12 11 11 12 13 11 12 13 13 13 14 12 11 12 12 10 10 9 9 8 8 9 9 8 7 7 5 6 7 6 7 6 9 6 7 6 5 4 3 2 2
10 12 11 11 12 8 11 12 12 11 11 12 12 13 12 11 12 12 11 11 9 8 10 8 6 6 10 3 2 5 6 7 8 6 1 2 7 4 1 0 1 2 3 2 2
10 10 10 11 12 10 10 10 10 11 11 11 11 12 12 11 12 11 10 9 9 9 8 7 7 7 11 6 5 4 5 1 1 2 2 6 7 3 2 -0 0 0 2 1 1
10 11 10 8 7 10 10 11 10 10 10 10 11 11 12 11 10 9 9 9 9 9 9 9 8 8 9 9 4 3 4 4 1 3 3 3 3 2 3 3 2 1 -2 -3 -1
8 10 9 9 9 9 10 10 10 10 10 10 10 11 11 10 10 9 8 8 8 9 6 6 6 7 7 7 5 3 3 3 1 -0 6 2 3 1 1 1 -2 -6 -3 -1 -3
9 9 7 8 9 9 9 9 10 8 9 10 10 9 9 10 10 9 8 8 8 7 6 4 3 0 -1 4 -1 1 2 1 2 -4 -3 -8 -1 -1 -8 -3 -1 0 -1 -2 -3
7 7 8 7 8 8 9 9 9 8 7 7 9 8 8 7 5 3 3 3 5 6 4 0 1 -0 3 3 -1 2 0 -2 -3 -7 -1 1 1 -1 -0 0 -1 -2 -3 -6 -9
Height
773 771 770 770 769 767 766 766 766 767 766 766 766 766 767 766 767 766 766 766 766 766 767 768 770 771 774 775 779 782 803 808 794 799 787 785 787 789 792 797 799 801 801 801 806
773 772 770 769 768 767 766 766 766 767 766 765 766 765 766 767 766 765 764 765 765 765 768 767 770 771 778 778 782 790 806 796 786 785 785 784 784 790 791 796 799 801 804 803 807
772 770 769 767 766 766 766 765 765 764 765 763 765 766 766 765 766 762 762 764 766 766 766 767 768 771 777 778 782 789 796 787 784 783 783 783 786 786 792 796 792 795 804 805 809
772 770 769 768 767 765 765 764 764 763 764 764 764 765 765 766 774 761 763 765 764 765 766 768 769 775 781 781 780 785 783 784 783 784 784 785 786 787 791 786 787 788 795 801 807
772 770 767 766 765 765 764 763 763 763 763 762 763 765 766 767 765 761 763 763 763 764 766 768 771 776 780 779 781 783 782 783 785 785 785 786 787 788 788 787 789 792 798 801 806
771 768 767 765 764 764 763 761 760 762 762 762 763 766 768 771 761 760 762 762 764 764 766 768 769 771 776 778 781 781 783 785 786 786 787 788 788 787 787 790 793 796 799 802 806
771 768 766 764 763 762 761 761 761 761 762 762 764 765 763 764 761 760 763 763 763 763 765 768 768 771 773 781 779 783 785 787 787 787 788 789 791 791 788 791 797 799 801 803 806
770 768 765 763 763 762 760 759 759 759 760 763 764 763 765 760 761 762 762 763 763 764 766 766 768 771 774 780 786 788 793 797 788 789 789 790 793 783 791 793 798 800 801 803 806
770 767 764 762 761 761 760 758 758 758 758 761 764 764 763 760 761 761 762 762 764 765 766 767 769 778 779 790 798 800 801 800 788 791 789 791 788 785 793 794 797 800 801 801 805
769 767 763 760 760 758 759 761 758 760 759 762 764 768 762 759 758 761 762 763 764 766 769 771 780 787 793 795 810 796 799 797 791 789 792 794 794 788 790 794 795 800 801 800 801
767 766 763 759 758 757 759 761 764 764 758 757 759 760 758 758 759 761 761 763 764 768 777 776 784 790 785 787 785 791 790 788 787 791 793 796 798 789 788 793 796 799 801 798 796
765 763 761 759 757 757 758 759 757 759 757 754 756 757 757 757 761 761 761 765 767 776 776 783 787 780 779 786 785 787 790 794 791 794 795 798 793 787 784 786 790 793 797 797 797
764 762 759 758 757 757 756 756 755 756 760 755 754 756 757 757 759 762 761 763 768 777 779 783 776 777 778 783 787 789 795 792 792 797 803 803 793 780 785 788 796 797 793 791 794
761 760 758 757 759 755 755 754 755 756 770 757 757 756 756 756 761 761 760 763 768 775 781 778 777 776 779 781 787 787 790 789 795 810 819 814 819 784 788 788 799 802 799 793 792
758 757 756 756 754 754 755 754 755 756 794 756 758 755 755 759 763 762 762 762 769 773 776 780 780 780 781 784 788 790 798 802 809 829 824 811 843 791 789 785 800 804 803 800 795
756 754 755 754 753 752 753 754 756 775 785 758 756 758 760 759 761 763 763 763 767 772 781 785 788 788 789 796 792 802 803 816 830 834 861 841 831 797 791 800 806 807 807 805 800
752 752 753 751 751 751 753 756 771 782 748 755 757 758 757 762 764 763 767 772 779 781 782 785 788 793 792 795 795 799 806 839 841 861 831 831 839 799 803 810 809 809 811 808 805
749 750 750 749 750 751 754 760 767 750 751 749 753 758 758 760 762 765 771 774 778 777 797 789 790 793 799 795 799 801 808 825 825 830 807 828 824 798 808 813 812 812 811 809 808
748 749 750 750 749 751 759 770 757 749 745 752 753 755 759 759 763 765 771 780 776 778 776 790 781 801 802 801 802 803 809 812 851 863 856 813 805 807 811 812 814 814 814 815 813
747 748 748 747 748 752 759 756 748 749 750 750 752 752 761 763 764 768 775 772 775 777 781 780 790 802 803 802 805 806 811 814 843 842 830 812 809 801 812 812 813 817 820 820 819
747 744 745 749 751 756 763 754 748 752 752 751 752 753 754 760 767 768 767 775 774 780 781 791 795 804 802 805 810 815 826 824 822 835 840 847 810 811 806 812 815 820 822 823 822
744 747 747 750 755 766 757 750 751 753 753 752 751 750 754 761 763 765 767 770 776 779 781 788 801 814 795 822 827 814 811 812 815 832 870 863 822 816 825 826 825 824 823 824 824
745 749 749 749 754 758 757 754 755 754 754 753 753 752 755 758 761 765 772 776 776 777 784 789 800 812 788 813 817 820 818 838 837 841 855 837 823 818 820 826 825 826 823 825 825
746 746 750 752 756 752 754 752 754 756 755 755 754 753 755 757 765 773 776 777 777 778 778 780 791 794 795 789 815 827 820 823 841 843 841 838 833 824 818 818 821 822 829 831 829
748 748 752 753 752 752 750 753 755 755 755 755 756 755 755 765 763 770 776 779 781 779 788 789 803 794 799 801 810 821 823 823 840 840 814 831 825 826 822 818 826 834 830 829 831
748 749 754 756 752 751 753 753 751 757 757 754 754 760 760 761 758 767 772 776 775 786 790 799 815 830 845 815 836 828 823 826 825 855 850 873 841 823 836 827 824 823 827 831 832
746 747 750 758 755 756 750 750 750 756 761 760 757 762 764 772 777 782 785 786 783 786 798 815 821 837 827 823 839 831 820 830 835 852 828 832 815 821 821 820 823 827 830 835 837
Wind_Speed
10 9 8 8 7 6 5 5 5 6 6 6 5 3 3 3 4 2 3 2 3 2 5 8 6 5 3 3 3 3 4 2 4 6 3 2 3 1 2 6 1 1 2 1 32
10 10 8 7 7 7 6 5 5 6 5 4 4 2 2 1 2 5 3 3 2 4 6 7 4 4 3 2 2 4 3 7 4 3 3 4 3 7 4 4 2 2 5 21 30
10 10 11 10 8 8 8 6 6 5 5 2 2 2 1 0 1 2 5 4 4 7 6 5 8 3 2 2 2 3 4 3 3 2 1 3 3 3 6 3 6 7 9 16 23
11 10 10 9 8 7 8 8 7 6 5 3 2 2 1 1 2 1 4 5 5 7 5 5 4 3 3 3 3 1 2 3 1 1 2 1 2 2 5 2 2 5 17 18 16
11 12 11 9 8 8 7 7 7 6 6 4 3 1 2 1 6 3 3 4 5 7 5 3 4 4 3 3 4 2 2 2 1 1 1 1 1 3 5 1 5 12 15 15 15
14 14 14 10 8 7 7 6 4 5 5 4 4 4 2 4 3 3 3 6 5 6 4 4 4 5 3 2 3 2 2 1 0 1 1 0 1 1 1 4 7 11 11 11 13
13 14 15 13 8 6 6 6 5 4 4 4 5 5 2 5 2 4 5 3 4 4 4 3 4 2 3 3 2 3 1 2 2 1 0 1 4 6 2 5 7 7 7 8 9
14 13 15 12 9 7 5 6 5 4 3 4 6 4 5 2 4 4 4 3 4 4 3 4 4 4 3 3 5 3 4 1 1 3 0 2 7 1 3 8 8 7 7 8 8
16 14 13 11 7 6 5 3 1 4 5 5 3 2 4 3 3 4 4 4 5 5 4 6 4 3 4 5 4 5 2 4 3 4 2 2 5 1 3 5 7 8 8 8 7
16 17 14 10 8 4 1 2 7 6 8 4 0 1 1 3 3 4 4 7 3 4 4 4 4 3 3 3 5 5 4 4 3 2 0 1 9 6 3 6 8 8 8 8 9
15 16 15 11 7 2 7 5 3 3 1 5 2 2 2 3 4 2 4 5 3 4 4 1 3 6 10 5 3 5 3 2 2 1 2 5 7 11 6 5 8 8 8 8 10
16 15 14 10 5 5 7 2 2 1 3 4 2 1 1 4 3 0 5 4 3 4 4 4 6 5 3 5 4 2 2 4 1 1 1 4 11 8 4 2 3 7 9 9 4
16 14 11 8 3 5 6 3 2 1 1 2 3 3 2 4 2 6 4 3 3 5 5 6 2 4 4 4 5 3 5 4 3 2 3 4 7 3 3 3 7 7 5 6 9
16 14 9 5 3 2 3 5 4 3 3 3 3 3 2 4 1 0 1 2 1 8 7 3 1 3 3 3 5 4 1 3 4 4 3 3 4 4 2 3 7 9 8 6 5
15 12 8 6 1 2 1 5 5 2 2 2 2 1 1 4 5 2 1 2 5 5 5 3 1 3 2 2 0 2 4 4 3 5 3 1 4 7 3 2 5 9 9 8 3
15 10 6 5 6 3 5 6 2 5 6 3 3 4 4 1 1 2 2 4 3 4 5 3 1 3 3 2 2 7 6 6 5 3 2 3 4 6 1 2 4 5 7 8 6
13 8 6 5 1 7 7 2 3 4 1 4 4 4 3 4 2 3 3 3 5 5 4 2 1 1 2 5 4 4 5 2 4 3 5 1 2 8 1 1 0 4 7 7 6
10 5 5 4 4 7 4 3 4 4 5 3 3 3 5 5 2 3 4 3 2 3 3 6 4 3 3 1 6 3 5 5 7 4 2 3 5 4 3 3 3 3 3 6 8
4 4 4 5 7 8 3 2 7 5 3 8 2 3 4 2 4 3 5 5 6 7 7 5 2 1 3 1 2 4 3 3 7 2 3 2 6 2 3 3 4 5 6 8 8
3 3 2 3 8 4 2 5 3 1 3 2 8 4 7 5 5 6 6 2 5 3 1 4 3 1 1 1 3 3 3 3 3 2 3 4 5 4 5 6 4 5 6 6 6
4 0 4 5 7 3 3 6 2 0 0 4 6 4 3 6 7 5 4 1 2 3 3 3 3 0 2 4 6 1 1 3 3 3 5 1 5 2 3 7 8 6 4 5 6
2 1 3 9 2 1 3 2 1 2 1 1 2 2 5 6 4 5 7 0 4 6 6 1 4 3 2 1 0 1 4 4 4 5 2 3 5 2 1 3 5 4 3 3 4
2 2 4 2 3 3 2 0 0 3 2 3 3 1 1 5 3 3 4 1 3 3 5 5 0 2 2 1 1 1 2 3 3 3 5 5 5 2 3 2 3 3 0 4 5
1 1 2 2 1 4 5 4 3 1 1 1 2 2 3 3 3 5 3 1 2 2 6 2 3 4 6 3 4 2 5 4 3 3 4 5 2 3 3 5 4 3 3 2 3
2 1 1 3 3 2 2 4 4 4 1 1 1 2 4 4 3 3 3 3 4 2 3 3 4 1 1 2 2 3 5 8 6 5 6 5 8 6 7 8 4 3 1 2 4
2 2 2 0 1 4 2 5 7 2 3 3 3 3 2 3 2 6 6 4 3 2 3 3 3 3 3 2 4 3 5 8 8 3 2 3 6 5 3 1 1 3 1 1 2
2 3 3 1 2 3 3 3 6 7 0 2 2 4 4 3 4 4 4 5 4 6 3 3 5 3 3 3 2 5 9 7 4 3 7 5 8 2 3 2 1 3 4 3 5
Wind_Direction
341 337 334 325 319 318 311 294 289 285 280 274 272 277 304 301 231 233 241 205 179 150 143 140 121 122 109 92 80 132 68 187 226 162 227 162 130 68 112 114 135 27 137 142 159
348 333 324 320 320 319 305 284 281 284 285 279 267 249 272 262 233 252 231 184 195 148 158 142 131 120 50 75 40 88 118 216 206 193 209 157 160 164 140 126 209 121 25 135 152
349 346 335 323 319 322 309 289 276 272 286 282 253 239 253 20 10 260 190 194 190 163 143 124 129 99 95 114 161 158 185 210 226 181 188 153 127 165 132 209 203 194 159 152 153
349 348 342 325 312 305 310 295 283 265 258 265 256 237 152 114 195 142 164 203 181 169 142 126 87 103 131 165 162 155 220 185 152 114 109 190 116 195 188 201 333 176 160 154 163
348 345 341 331 316 307 305 301 285 277 258 246 257 218 162 80 250 168 196 175 168 161 162 132 131 139 185 167 128 181 178 99 40 92 106 72 235 239 248 93 77 124 151 160 164
346 344 339 331 312 300 304 305 288 274 263 233 215 193 205 228 154 150 166 150 170 151 148 147 183 192 125 161 155 146 113 91 18 348 14 157 278 105 22 108 116 146 156 159 165
343 344 340 331 314 297 297 288 274 263 245 216 197 186 82 243 176 158 152 155 159 153 141 170 139 111 120 115 122 106 16 333 216 208 89 106 266 234 133 127 151 157 150 147 159
335 341 342 332 319 302 291 286 274 242 201 202 184 160 231 198 171 163 156 144 132 135 122 135 131 101 80 116 28 72 56 12 268 154 33 101 269 183 142 146 175 179 171 159 170
330 333 341 334 321 305 301 311 190 152 136 140 152 165 263 161 179 179 179 140 124 109 95 108 78 93 56 94 20 15 217 209 301 194 107 144 264 345 147 176 192 197 193 180 174
333 328 334 334 319 309 252 92 113 114 121 121 63 334 195 204 142 156 142 150 121 111 68 57 57 85 52 107 212 203 211 237 243 199 122 217 265 255 201 187 218 213 208 199 198
327 328 329 332 314 226 149 133 31 336 185 178 203 262 142 127 125 113 138 129 98 68 145 30 117 201 207 186 128 131 175 196 193 79 209 240 269 278 261 203 235 231 223 218 215
322 324 326 328 311 196 179 175 210 267 289 202 228 236 158 169 113 151 154 138 144 164 120 51 234 217 139 160 168 175 196 250 298 89 159 0 285 272 257 230 226 238 232 227 181
318 318 323 319 288 198 215 230 218 215 272 215 183 185 204 144 193 186 140 140 141 144 182 161 219 138 147 144 148 180 179 192 189 91 60 330 294 323 46 73 28 8 305 222 199
314 314 313 304 216 190 227 217 194 157 30 227 216 227 125 142 185 86 154 147 132 186 159 225 329 147 141 169 132 204 205 109 121 91 223 16 267 298 28 58 23 4 6 341 205
312 307 291 237 218 187 203 167 159 104 2 154 169 142 125 151 133 4 358 62 165 149 119 236 133 149 159 155 179 180 70 87 82 95 52 305 77 269 11 74 359 354 357 358 33
309 298 269 232 228 221 175 155 139 57 250 172 132 164 126 113 98 114 83 42 120 99 50 89 43 44 110 80 51 155 75 52 55 78 34 252 135 282 163 327 329 346 357 360 31
307 283 231 199 249 182 162 110 68 163 194 186 182 168 156 153 147 147 155 124 150 135 199 46 47 47 63 84 25 75 78 356 353 6 219 211 64 244 94 27 5 357 358 8 35
298 254 227 206 194 161 156 70 192 230 200 114 123 101 167 159 166 133 122 170 232 105 118 162 282 162 3 79 174 173 148 159 201 199 239 70 235 265 115 101 57 44 13 33 40
255 201 207 188 169 164 86 123 209 203 150 146 79 145 212 185 143 132 190 198 195 183 176 144 198 33 46 29 69 190 192 132 101 52 53 222 287 91 119 90 64 56 49 33 32
178 204 144 147 153 133 89 244 223 136 120 146 189 168 182 192 158 174 184 188 178 189 133 189 106 357 144 124 41 138 161 85 1 138 246 290 282 237 193 181 146 89 71 43 32
216 136 71 148 138 61 205 230 209 17 227 187 203 152 180 176 174 192 193 168 159 124 105 123 95 186 128 195 178 103 0 38 111 118 168 184 262 221 233 172 161 132 86 45 28
86 168 156 161 123 266 210 213 85 173 283 212 111 120 170 163 149 196 200 128 156 153 157 162 138 156 169 311 248 76 183 161 132 243 82 142 271 5 318 150 142 140 19 18 19
151 147 122 117 189 226 285 250 154 183 211 176 153 176 150 166 147 141 129 20 160 130 162 192 268 84 344 30 71 192 185 104 108 86 201 138 260 39 121 128 178 168 184 34 17
139 90 33 72 325 157 169 208 201 310 145 80 136 118 122 127 20 158 128 84 88 99 82 122 109 157 189 180 122 154 187 165 123 122 173 218 252 295 226 199 212 184 42 22 23
352 180 197 209 251 179 132 136 151 192 64 106 42 237 167 137 125 158 118 115 43 90 53 93 154 118 53 44 85 189 161 188 193 193 166 239 184 241 215 214 213 183 118 9 18
105 148 63 51 172 135 160 225 177 160 152 205 193 141 129 158 182 182 135 181 178 77 87 13 155 84 334 92 64 273 227 196 212 243 298 147 267 228 268 167 202 229 240 282 338
75 65 113 294 64 100 234 197 195 146 350 44 153 125 120 126 98 81 64 73 119 141 122 97 130 97 261 5 16 328 229 181 180 219 151 172 225 173 159 152 227 212 185 229 253